Weather History for Apalachicola, FL

Change the Weather History Date:

Friday, September 20, 2013

  Actual Average Record
Temperature  
Mean Temperature 82 °F 78 °F  
Max Temperature 88 °F 87 °F 95 °F (1942)
Min Temperature 76 °F 70 °F 53 °F (1981)
Degree Days  
Heating Degree Days 0    
Month to date heating degree days 0  
Since 1 July heating degree days 0  
Cooling Degree Days 17    
Month to date cooling degree days 344  
Year to date cooling degree days 2264  
Growing Degree Days 31 (Base 50)    
Moisture  
Dew Point 73 °F    
Average Humidity 72    
Maximum Humidity 82    
Minimum Humidity 61    
Precipitation  
Precipitation 0.02 in 0.21 in 7.10 in (1969)
Month to date precipitation 0.68 4.71  
Year to date precipitation 44.06 44.65  
Sea Level Pressure  
Sea Level Pressure 29.99 in    
Wind  
Wind Speed 8 mph (SE)    
Max Wind Speed 15 mph    
Max Gust Speed 20 mph    
Visibility 10 miles    
Events      
T = Trace of Precipitation, MM = Missing Value Source: NWS Daily Summary

Daily Weather History Graph

Daily Weather History Graph

Search for Another Location

Airport:

Trip Planner

Search our weather history database for the weather conditions in past years. The results will help you decide how hot, cold, wet, or windy it might be!

Date:

Astronomy

Sep. 20, 2013 Rise Set
Actual Time 7:27 AM EDT 7:38 PM EDT
Civil Twilight 7:03 AM EDT 8:02 PM EDT
Nautical Twilight 6:35 AM EDT 8:30 PM EDT
Astronomical Twilight 6:07 AM EDT 8:58 PM EDT
Moon 8:22 PM EDT (9/20) 8:32 AM EDT (9/20)
Length of Visible Light 12h 58m
Length of Day
12h 11m
Full, 98% of the Moon is Illuminated
Sep 20
Full
Sep 26
Last Quarter
Oct 4
New
Oct 11
First Quarter
Oct 18
Full

Hourly Weather History & Observations

Time (EDT) Temp. Heat Index Dew Point Humidity Pressure Visibility Wind Dir Wind Speed Gust Speed Precip Events Conditions
12:53 AM 75.9 °F - 70.0 °F 82% 30.02 in 10.0 mi NE 5.8 mph - N/A   Clear
1:53 AM 81.0 °F 85.8 °F 73.0 °F 77% 30.02 in 10.0 mi ESE 8.1 mph - N/A   Scattered Clouds
2:53 AM 82.0 °F 87.4 °F 73.0 °F 74% 30.02 in 10.0 mi ESE 9.2 mph - N/A   Scattered Clouds
3:11 AM 82.4 °F 88.2 °F 73.4 °F 74% 30.02 in 10.0 mi ESE 5.8 mph - N/A   Mostly Cloudy
3:44 AM 80.6 °F 85.4 °F 73.4 °F 79% 30.01 in 10.0 mi ESE 9.2 mph - N/A   Scattered Clouds
3:53 AM 82.0 °F 87.4 °F 73.0 °F 74% 30.01 in 10.0 mi ESE 8.1 mph - N/A   Partly Cloudy
4:53 AM 82.0 °F 87.9 °F 73.9 °F 76% 29.99 in 10.0 mi SE 6.9 mph - N/A   Scattered Clouds
5:53 AM 82.0 °F 87.9 °F 73.9 °F 76% 30.00 in 10.0 mi SE 8.1 mph - N/A   Scattered Clouds
6:11 AM 82.4 °F 89.5 °F 75.2 °F 79% 30.00 in 10.0 mi SE 8.1 mph - N/A   Mostly Cloudy
6:18 AM 82.4 °F 89.5 °F 75.2 °F 79% 30.00 in 10.0 mi SE 9.2 mph - N/A   Partly Cloudy
6:53 AM 81.0 °F 86.2 °F 73.9 °F 79% 30.00 in 10.0 mi SE 5.8 mph - N/A   Clear
7:51 AM 82.4 °F 88.2 °F 73.4 °F 74% 30.01 in 10.0 mi SE 9.2 mph - N/A   Mostly Cloudy
7:53 AM 82.0 °F 87.9 °F 73.9 °F 76% 30.01 in 10.0 mi SE 6.9 mph - N/A   Mostly Cloudy
8:04 AM 80.6 °F 86.2 °F 75.2 °F 84% 30.01 in 10.0 mi ESE 6.9 mph - N/A   Mostly Cloudy
8:43 AM 82.4 °F 89.5 °F 75.2 °F 79% 30.01 in 10.0 mi SSE 6.9 mph - N/A   Mostly Cloudy
8:51 AM 82.4 °F 89.5 °F 75.2 °F 79% 30.01 in 10.0 mi ESE 9.2 mph - N/A   Scattered Clouds
8:53 AM 82.9 °F 89.4 °F 73.9 °F 74% 30.01 in 10.0 mi SE 9.2 mph - N/A   Scattered Clouds
9:53 AM 84.9 °F 92.1 °F 73.9 °F 69% 30.02 in 10.0 mi SE 11.5 mph 16.1 mph N/A   Scattered Clouds
10:53 AM 86.0 °F 93.0 °F 73.0 °F 65% 30.03 in 10.0 mi SSE 8.1 mph - N/A   Clear
11:34 AM 86.0 °F 93.4 °F 73.4 °F 66% 30.03 in 10.0 mi SE 9.2 mph - N/A   Mostly Cloudy
11:53 AM 84.0 °F 91.2 °F 73.9 °F 72% 30.03 in 10.0 mi SE 9.2 mph - N/A   Overcast
12:08 PM 82.4 °F 88.2 °F 73.4 °F 74% 30.02 in 10.0 mi SE 10.4 mph - N/A   Mostly Cloudy
12:53 PM 86.0 °F 95.1 °F 75.0 °F 70% 30.01 in 10.0 mi East 11.5 mph - 0.01 in   Scattered Clouds
1:34 PM 82.4 °F 89.5 °F 75.2 °F 79% 29.99 in 10.0 mi South 12.7 mph - N/A   Mostly Cloudy
1:53 PM 82.9 °F 90.2 °F 75.0 °F 77% 29.99 in 10.0 mi SSE 10.4 mph - N/A   Mostly Cloudy
2:01 PM 86.0 °F 93.4 °F 73.4 °F 66% 29.98 in 10.0 mi SSE 9.2 mph - N/A   Mostly Cloudy
2:30 PM 84.2 °F 92.3 °F 75.2 °F 74% 29.98 in 10.0 mi SSE 8.1 mph - N/A   Mostly Cloudy
2:53 PM 87.1 °F 96.3 °F 75.0 °F 67% 29.97 in 10.0 mi South 13.8 mph - N/A   Mostly Cloudy
3:53 PM 87.1 °F 95.4 °F 73.9 °F 65% 29.94 in 10.0 mi SSE 11.5 mph - N/A   Clear
4:53 PM 86.0 °F 92.2 °F 72.0 °F 63% 29.92 in 10.0 mi SSE 13.8 mph - N/A   Clear
5:53 PM 86.0 °F 92.2 °F 72.0 °F 63% 29.91 in 10.0 mi SE 10.4 mph - N/A   Scattered Clouds
6:53 PM 84.0 °F 89.0 °F 71.1 °F 65% 29.91 in 10.0 mi SE 6.9 mph - N/A   Partly Cloudy
7:53 PM 82.0 °F 86.3 °F 71.1 °F 69% 29.92 in 10.0 mi SSE 5.8 mph - 0.01 in   Partly Cloudy
8:53 PM 81.0 °F 84.9 °F 71.1 °F 72% 29.93 in 10.0 mi SSE 5.8 mph - N/A   Clear
9:53 PM 81.0 °F 84.9 °F 71.1 °F 72% 29.94 in 10.0 mi SE 5.8 mph - N/A   Partly Cloudy
10:53 PM 80.1 °F 83.8 °F 72.0 °F 76% 29.93 in 10.0 mi South 4.6 mph - N/A   Clear
11:53 PM 79.0 °F - 71.1 °F 77% 29.92 in 10.0 mi SE 4.6 mph - N/A   Clear